Theta_e
302 301 301 301 302 300 299 299 300 300 300 300 301 302 301 302 303 302 303 302 304 303 308 306 304 304 307 311 316 319 316 315 317 317 316 309 307 310 307 309 308 310 309 308 306
302 301 301 301 301 300 299 299 299 300 300 300 301 302 300 302 302 302 301 303 305 305 309 307 308 309 310 311 314 314 312 315 310 310 310 306 305 305 305 305 304 305 306 305 305
301 301 301 301 301 301 299 299 300 300 300 301 301 304 303 303 304 302 301 302 304 304 308 309 309 310 309 313 312 311 311 310 306 307 306 305 303 303 303 301 303 305 304 305 304
302 301 301 301 301 300 300 299 300 300 300 301 301 302 304 304 305 301 301 302 303 304 307 309 309 309 308 308 308 309 306 306 306 306 305 303 304 302 302 303 304 304 304 304 305
302 302 301 301 301 300 299 299 300 300 300 301 303 302 305 302 301 302 301 301 303 306 306 307 308 307 304 304 305 305 305 305 305 306 305 304 303 302 303 304 304 305 305 304 305
305 302 302 302 301 301 300 299 300 301 301 301 301 303 305 301 301 302 302 301 302 302 304 306 307 307 306 305 304 305 305 304 304 304 304 303 302 302 303 304 305 304 305 305 305
305 305 302 302 301 301 300 299 300 301 301 301 301 301 302 301 301 301 302 301 302 301 304 305 306 306 306 305 304 304 304 302 303 304 303 304 301 301 303 304 304 303 304 305 305
304 306 304 302 302 301 300 300 300 301 301 301 301 302 303 301 302 301 302 301 301 301 303 305 306 305 305 305 305 301 300 299 302 302 303 303 300 301 303 303 302 303 304 305 307
307 305 306 303 302 302 300 300 300 300 301 300 301 303 303 302 302 301 301 301 301 302 303 305 305 303 302 302 300 297 298 301 300 301 300 302 300 300 302 301 301 303 304 305 306
314 306 306 304 303 302 301 301 300 301 301 301 301 303 303 302 301 302 301 301 304 305 304 305 305 298 297 296 300 298 300 301 301 300 300 298 298 299 301 302 302 303 305 306 307
317 309 306 306 303 302 301 302 304 306 301 304 303 304 302 301 301 302 302 304 305 304 301 303 298 298 301 301 301 301 301 300 298 300 300 299 298 301 302 303 302 304 306 306 307
318 315 307 306 303 302 300 300 300 302 302 301 300 301 301 302 303 300 303 304 303 301 303 301 299 301 301 301 301 301 299 298 298 299 301 301 302 301 301 303 305 305 305 305 306
317 318 313 308 304 301 300 299 300 299 303 302 301 302 300 302 301 300 301 303 301 301 302 302 302 300 300 300 299 298 299 299 299 298 301 301 301 302 304 305 305 305 305 305 305
317 317 318 308 304 301 300 299 300 300 305 305 301 302 301 302 304 301 300 303 301 300 300 300 300 299 300 300 298 297 299 299 299 301 300 301 301 303 304 303 303 304 305 304 302
316 316 317 315 303 300 299 299 301 305 310 303 301 301 301 303 301 302 301 302 300 300 301 301 299 299 301 300 298 297 298 299 299 300 301 302 299 302 303 304 302 303 303 301 300
317 317 316 316 305 301 299 299 305 309 310 303 301 303 302 302 301 302 302 301 300 299 298 298 298 300 299 299 298 299 301 298 301 301 293 301 303 302 302 304 304 302 302 300 300
316 316 316 314 313 301 299 304 311 310 303 304 300 302 301 301 301 301 300 298 300 301 302 299 299 298 297 297 299 300 294 289 293 291 294 301 301 303 301 301 303 301 300 300 300
314 315 316 315 314 312 301 306 317 307 305 300 300 301 301 300 301 300 301 301 298 297 296 296 299 299 297 296 297 302 294 291 289 291 294 298 299 299 300 302 302 300 298 300 299
312 314 314 314 313 302 303 310 313 306 304 300 299 299 300 299 300 300 301 300 299 298 298 297 299 296 296 297 298 299 294 296 286 287 292 297 299 299 300 300 300 298 297 298 298
311 312 313 313 308 300 304 312 306 302 301 301 304 299 298 298 299 299 300 300 299 298 297 296 296 296 296 299 299 299 299 295 289 288 288 293 297 298 301 300 298 295 295 297 298
307 309 308 308 301 302 308 307 304 300 300 301 303 306 302 298 299 298 300 300 299 298 297 296 295 296 295 296 299 295 293 292 292 293 288 291 295 295 299 300 296 294 295 298 297
306 305 305 303 302 301 304 303 301 298 300 301 300 302 302 300 297 299 301 300 299 297 296 297 296 296 297 295 297 297 296 293 289 290 293 292 296 297 298 297 296 294 295 298 296
305 303 302 302 304 300 300 299 299 299 300 300 302 300 300 301 298 297 299 298 298 297 297 296 293 295 300 297 296 295 297 296 285 285 293 290 294 296 296 294 295 294 296 298 295
303 300 298 298 299 302 300 300 299 300 301 301 300 298 298 298 297 297 298 298 298 298 299 297 294 295 305 303 297 298 298 297 291 287 286 292 294 297 297 292 293 295 298 296 294
302 302 300 298 298 301 303 302 302 300 301 303 300 299 300 301 297 296 297 297 298 299 296 295 291 291 292 293 294 295 296 297 295 290 292 295 291 294 290 291 293 296 297 294 293
299 302 298 297 301 301 303 303 302 300 300 301 301 301 301 301 300 298 296 296 297 297 296 295 292 295 293 294 295 296 296 295 296 296 292 295 296 297 297 296 296 296 295 293 292
297 299 303 301 299 302 305 306 304 301 300 301 300 301 301 302 300 298 297 297 296 296 294 295 292 288 295 291 293 297 295 295 292 288 293 290 294 289 288 288 293 295 294 292 293
Wind_Speed
12 13 12 11 9 8 9 9 8 7 6 8 8 8 7 2 9 11 9 11 11 6 6 6 8 12 10 6 4 3 3 2 2 2 0 4 5 3 8 7 8 6 6 2 8
12 13 13 11 9 8 9 10 9 7 5 7 7 5 5 2 4 13 12 8 6 5 7 12 13 10 5 5 3 3 3 5 2 1 1 7 4 8 5 11 7 10 1 9 13
12 13 13 12 10 8 9 10 10 8 5 5 5 5 2 3 1 8 10 6 5 4 10 11 8 5 3 5 2 3 4 4 3 2 1 2 3 4 4 6 7 6 16 14 16
13 13 13 13 11 9 9 11 8 7 4 3 5 1 5 1 2 7 7 6 8 6 11 10 4 3 3 2 1 2 2 1 3 1 1 2 7 7 7 9 15 17 14 11 11
15 13 14 13 12 10 10 11 7 6 3 2 5 2 2 2 4 6 6 5 6 5 7 7 5 2 4 3 1 1 1 4 2 5 6 5 9 6 15 7 6 6 6 10 13
16 15 15 14 12 10 10 10 7 5 2 2 2 3 0 2 7 6 4 6 5 7 5 5 4 4 4 2 3 1 4 8 5 3 2 4 5 6 3 5 10 13 15 17 15
15 17 14 15 14 11 10 10 7 3 3 2 1 2 3 3 7 8 3 3 4 7 10 10 5 2 3 2 2 2 5 3 3 5 4 13 8 5 4 13 19 25 24 21 22
15 15 17 15 15 13 11 10 7 3 3 1 2 2 1 1 3 7 2 2 4 5 7 5 6 7 3 2 3 5 5 5 3 10 4 7 10 9 14 10 29 21 15 17 14
15 14 15 17 15 14 13 11 7 5 4 2 2 2 1 1 2 8 3 4 4 5 6 5 5 4 3 3 4 7 1 2 8 5 4 1 10 12 15 24 20 19 15 16 6
16 14 14 15 16 15 12 10 3 1 1 4 2 1 3 2 2 6 3 4 4 5 4 2 4 4 5 4 2 2 3 3 5 5 3 7 19 17 29 15 19 14 12 7 5
19 15 14 13 14 15 11 4 1 1 0 2 2 2 1 3 2 4 2 4 4 4 3 4 6 3 3 1 3 3 2 4 5 2 8 4 10 19 24 14 6 5 6 6 7
19 18 15 14 13 10 10 4 4 2 4 2 2 2 1 1 0 5 1 2 3 2 1 5 2 4 4 3 2 4 3 4 6 2 3 8 17 13 7 4 2 4 4 4 2
20 21 16 13 11 8 7 7 5 4 3 2 3 3 1 0 1 5 2 2 3 3 1 5 4 4 3 2 1 3 3 2 4 9 3 7 6 5 4 4 12 12 9 6 11
18 20 18 12 5 8 4 8 5 4 3 2 2 1 1 2 1 4 3 3 3 4 4 4 2 3 2 1 2 3 4 1 4 5 2 4 4 5 4 5 2 4 5 9 19
17 19 21 13 7 4 5 5 5 3 3 2 1 2 1 2 1 2 5 3 3 4 4 2 4 2 2 1 2 5 3 4 2 3 3 1 3 7 3 4 5 2 2 17 22
14 17 16 14 11 5 4 3 2 4 5 1 1 2 2 1 1 1 1 4 4 3 4 3 1 1 1 1 2 5 3 5 3 2 3 4 3 6 4 4 1 1 15 24 27
14 18 13 10 14 7 4 1 3 3 2 3 2 2 1 1 1 1 1 3 3 4 2 1 1 0 1 1 1 6 5 3 6 4 5 2 1 11 7 6 5 3 14 23 32
15 21 14 11 13 7 2 3 4 3 4 1 1 2 3 1 1 1 2 2 1 3 3 4 4 2 1 2 2 4 4 5 4 2 5 4 6 6 6 9 4 7 15 29 32
19 22 21 21 13 8 9 2 4 3 2 4 2 2 3 1 2 2 4 4 4 4 5 4 2 2 4 2 3 3 3 4 6 1 3 4 7 10 8 7 3 14 31 29 32
13 22 24 17 14 15 3 5 5 4 1 1 3 2 4 3 4 5 5 3 5 3 4 4 3 1 3 3 4 3 4 4 3 1 5 6 6 9 5 8 6 11 21 26 30
13 10 12 20 19 12 4 7 5 7 8 2 1 1 4 4 5 4 5 1 4 5 3 3 3 0 3 6 7 1 1 4 4 4 5 3 7 8 7 5 4 8 22 24 29
11 4 16 24 5 5 4 5 7 6 4 3 1 4 5 3 4 3 7 2 9 8 6 2 4 3 7 1 2 3 5 5 4 5 3 3 9 5 6 5 2 14 21 26 35
9 8 21 30 5 3 2 2 4 5 5 6 7 6 2 3 2 3 3 2 9 4 6 6 0 3 5 3 4 5 5 4 5 3 6 5 7 1 1 6 10 15 27 30 31
6 3 6 16 4 6 6 4 5 6 6 6 3 4 2 2 1 3 4 1 4 4 5 5 3 6 6 4 4 5 6 8 6 4 4 10 13 25 17 10 17 31 23 25 27
12 6 11 6 8 3 8 12 8 7 6 11 3 7 6 3 2 4 2 2 2 7 4 4 4 3 4 8 4 6 7 12 12 9 7 9 10 20 11 11 18 19 17 20 25
7 5 8 8 17 14 12 12 12 6 10 6 6 13 11 8 7 6 6 4 5 2 5 3 2 1 5 2 4 7 14 16 17 14 15 21 26 27 33 22 8 13 11 15 20
19 27 11 13 8 11 16 14 13 12 12 11 18 7 11 19 4 2 6 4 6 7 6 6 4 3 6 4 7 7 7 15 6 4 11 7 15 1 5 4 8 8 7 11 16
Wind_Direction
353 357 2 4 359 1 3 1 357 352 1 1 353 357 172 61 44 35 40 26 37 69 106 115 125 146 149 152 159 179 73 198 252 293 222 351 11 332 323 288 304 291 328 35 331
349 355 359 359 354 356 0 354 350 344 326 354 355 30 162 187 49 33 37 30 34 86 123 122 120 133 140 155 167 107 130 213 209 156 303 338 6 331 336 307 298 278 156 320 323
345 351 357 353 351 354 353 353 349 344 328 351 0 44 87 197 33 7 25 30 23 102 144 138 128 132 131 149 152 154 178 186 190 163 318 286 272 299 287 286 241 272 301 303 311
342 348 354 352 349 346 349 349 351 349 341 355 11 48 27 47 180 357 18 24 30 116 139 149 142 124 108 140 152 166 96 145 162 220 261 238 304 299 256 254 290 297 293 296 306
341 342 350 350 345 341 345 347 351 347 351 6 33 36 317 25 20 9 19 28 46 118 144 140 132 119 134 132 75 142 285 292 243 281 277 270 259 248 270 336 336 299 307 303 306
343 341 343 346 342 339 339 345 343 339 322 288 301 26 279 67 26 22 18 25 55 81 123 163 132 107 112 122 150 215 288 282 297 248 287 287 266 312 243 331 340 313 302 309 300
346 340 342 344 340 337 333 338 334 351 357 229 242 268 68 93 35 24 16 41 73 84 85 95 110 125 106 78 1 342 359 10 4 356 342 350 322 211 308 315 318 314 306 308 311
343 343 340 343 340 336 328 328 313 322 337 267 231 249 212 309 17 19 41 83 100 102 113 108 93 80 48 68 36 32 49 14 347 19 1 52 281 270 312 309 311 309 305 310 304
341 335 345 334 342 336 326 325 308 272 280 197 212 200 222 289 328 8 68 105 121 110 104 104 72 68 49 62 26 14 297 326 320 64 356 47 277 269 288 303 288 287 288 309 240
333 329 341 338 340 337 330 330 310 267 207 205 212 149 223 261 281 11 97 108 118 125 98 63 58 66 32 56 209 311 338 306 259 302 350 264 265 283 294 291 286 289 291 292 241
326 330 339 338 338 336 345 340 324 256 27 190 203 224 239 304 194 4 124 123 103 82 86 29 67 98 178 44 126 143 218 257 249 271 349 308 287 288 295 303 266 284 287 238 287
320 327 328 335 337 343 355 20 23 316 305 234 203 208 241 304 174 360 96 154 111 102 74 34 137 188 189 226 185 217 228 262 275 260 320 293 295 285 287 279 357 147 103 72 348
311 317 317 322 331 347 5 17 353 342 264 245 211 235 218 252 104 357 58 122 104 90 314 154 173 162 183 116 340 246 193 171 232 321 257 306 294 322 300 83 91 97 95 47 1
296 308 305 315 316 340 358 356 345 346 57 200 181 233 208 139 272 33 49 119 45 151 152 113 166 180 150 174 153 323 151 83 297 358 281 41 275 303 285 342 111 98 52 1 335
276 288 294 308 308 327 332 343 342 340 359 84 198 200 109 145 124 38 48 102 125 143 107 170 165 171 171 190 176 241 352 281 196 209 21 296 63 271 310 271 222 189 280 335 336
268 267 277 304 298 299 306 316 348 39 259 208 173 199 138 91 32 264 185 96 109 95 57 98 41 85 102 342 240 314 29 45 66 69 16 268 101 275 221 211 198 256 335 337 338
258 267 249 257 286 287 310 3 23 164 7 289 207 193 151 148 112 45 344 39 137 95 217 44 63 320 97 104 353 33 44 348 359 9 221 341 332 251 257 233 174 243 317 336 340
237 256 248 250 255 235 320 22 183 201 233 341 31 66 184 166 237 184 147 145 104 86 105 146 318 183 82 68 156 46 130 141 236 282 283 307 228 249 222 159 154 320 320 343 337
266 237 241 242 240 163 155 200 203 228 101 154 37 97 287 279 183 166 216 201 162 150 155 141 216 44 61 59 96 255 50 160 99 37 24 268 286 290 221 202 279 326 351 333 329
257 234 236 226 206 172 110 224 205 153 180 141 203 120 218 215 177 186 192 205 163 153 156 178 35 177 112 88 19 131 155 71 18 8 302 286 287 244 257 244 328 339 324 323 329
244 231 220 193 173 178 213 206 203 173 171 179 251 252 248 222 200 216 202 235 166 151 123 132 109 41 72 204 179 24 37 50 116 146 178 293 266 225 230 192 262 300 317 327 331
218 232 184 177 157 180 197 191 171 152 182 112 32 223 211 196 216 245 218 235 165 152 144 147 139 198 214 299 191 198 168 147 124 241 218 160 268 263 214 172 220 314 325 337 343
229 199 182 180 196 197 211 167 182 138 176 169 191 206 136 235 253 192 196 1 154 135 158 185 308 1 330 357 352 226 194 136 114 93 203 140 262 306 282 306 317 319 339 339 343
213 175 169 203 233 171 147 194 171 206 156 151 157 126 142 247 148 259 176 133 153 121 130 135 121 184 204 202 129 198 192 174 133 137 191 228 268 281 289 298 320 328 329 335 344
229 214 188 184 216 187 182 172 151 165 200 161 209 229 165 206 278 229 139 108 40 163 111 121 198 189 254 245 232 233 211 188 202 192 185 268 223 264 273 290 292 307 320 339 343
265 195 186 164 171 184 198 191 160 168 160 198 221 194 186 187 201 190 139 198 195 172 155 137 247 141 287 286 204 254 228 216 224 228 255 262 278 274 277 281 261 293 320 336 338
258 259 222 189 164 193 213 202 190 154 209 182 199 135 193 225 208 277 191 160 171 155 163 154 140 94 269 332 295 291 228 188 191 213 210 200 236 9 279 254 260 282 296 325 346